カタログに戻る

HULIANWANG DIGUI-13

運用中通信LEO
NORAD 62973·PAYLOAD·🇨🇳 China

打ち上げ Feb 11, 2025 から Wenchang Space Launch Site

Loading…

次のパス (今後24時間)

TLE

最新Source: Space-Track

元期: Sep 14, 2026, 12:57 UTC

1 62973U 25030C   26257.54015817 -.00000093  00000-0  66418-4 0  9992
2 62973  50.0019 275.3470 0000363  19.4596 340.6290 13.29326617 77747

AllMySatでHULIANWANG DIGUI-13をリアルタイム追跡

Download on the App Store